Regional Weather Roundup
Issued by NWS

Home | Current Version | Previous Version | Graphics & Text | Print | Product List | Glossary Off
Versions: 1 2 3 4 5 6 7 8 9 10 11 12 13 14 15 16 17 18 19 20 21 22 23 24 25 26 27 28 29 30 31 32 33 34 35 36 37 38 39 40 41 42 43 44 45 46 47 48 49 50

000
ASUS43 KFSD 281802
RWRSD

WEATHER ROUNDUP FOR SOUTH DAKOTA
NATIONAL WEATHER SERVICE SIOUX FALLS SD
100 PM CDT TUE MAR 28 2017

NOTE: "FAIR" INDICATES FEW OR NO CLOUDS BELOW 12,000 FEET WITH NO
SIGNIFICANT WEATHER AND/OR OBSTRUCTIONS TO VISIBILITY.


SDZ001>005-009-010-012>017-281900-
NORTHWEST AND NORTH CENTRAL SOUTH DAKOTA

CITY           SKY/WX    TMP DP  RH WIND       PRES   REMARKS
BUFFALO          N/A     57  40  52 SE10      29.98S
FAITH            N/A     49  43  80 MISG      30.07R
MOBRIDGE       CLOUDY    56  37  49 SE8       30.09S
$$

SDZ012>016-024>037-041>051-057-063-072>074-281900-
SOUTHWEST AND SOUTH CENTRAL SOUTH DAKOTA

CITY           SKY/WX    TMP DP  RH WIND       PRES   REMARKS
RAPID CTY ARPT LGT RAIN  42  39  89 NE5       30.04R
PIERRE         CLOUDY    53  42  66 S13       30.09S
CUSTER         LGT RAIN  38  35  89 NE7       30.01F
ELLSWORTH AFB  LGT RAIN  42  42 100 CALM      30.04R
PHILIP         LGT RAIN  47  44  90 SE14      30.07S
PINE RIDGE     LGT RAIN  46  44  93 NE6       30.02F
SPEARFISH      FAIR      46  39  76 NE7       30.04S
WINNER         LGT RAIN  50  44  80 E12       30.09F
$$

SDZ004>011-016>023-039-040-281900-
NORTHEAST SOUTH DAKOTA

CITY           SKY/WX    TMP DP  RH WIND       PRES   REMARKS
ABERDEEN       MOSUNNY   53  37  54 E8        30.16S
WATERTOWN      MOSUNNY   54  36  50 SE7       30.15R
BROOKINGS      MOSUNNY   55  38  52 SE7         N/A
SISSETON         N/A     52  42  69 CALM      30.17S
$$

SDZ017-020-022-023-036>040-048>070-281900-
SOUTHEAST SOUTH DAKOTA

CITY           SKY/WX    TMP DP  RH WIND       PRES   REMARKS
SIOUX FALLS    CLOUDY    56  37  49 CALM      30.13F
HURON          CLOUDY    55  39  54 SE8       30.14S
CHAMBERLAIN    CLOUDY    56  41  56 E5        30.10F
MITCHELL       CLOUDY    57  39  51 MISG      30.14F
YANKTON        CLOUDY    54  39  58 E9G16     30.12S
$$

ABBREVIATIONS USED IN REMARKS
   TC - TEMPERATURE IN CELSIUS
  WCI - WIND CHILL INDEX
   HX - HEAT INDEX
  VSB - VISIBILITY




USA.gov is the U.S. government's official web portal to all federal, state and local government web resources and services.